Weather in Volary

Czech Republic     48°54′36″N   13°53′27″E
temp.,
°C
wind,
m/s
gust,
m/s
humid.,
%
clouds,
%
prec.,
mm/h
press.,
hPa
HPBL,
m
24 january, sun
sun2401:00−4s1193100 0.1 99721
04:00−4ssw2289100 0.0 99747
07:00−3sw4149192 0.1 997748
10:000wsw8147925 0.3 9991137
13:00−2wsw8147727 0.3 9991057
16:00−3wsw71479100 0.1 10001043
19:00−3wsw7157981 0.2 1000882
22:00−3w5128141 0.0 1001762
25 january, mon
mon2501:00−5wsw3118976 0.0 1001418
04:00−6sw249020 0.0 100298
07:00−7wsw229125 0.0 100344
10:00−3wsw12780 0.0 1004172
13:00−1wnw136825 0.0 1004799
16:00−3wsw118689 0.0 100587
19:00−5w119493 0.0 100721
22:00−6w239392 0.0 100993
26 january, tue
tue2601:00−4w41286100 0.0 1011828
04:00−6w259081 0.0 1013173
07:00−5w3119198 0.4 1015627
10:00−3w51075100 0.0 1017975
13:00−2wsw6127578 0.1 10161042
16:00−2w5127791 0.1 1015964
19:00−2w5128495 0.3 10151055
22:00−3w41286100 0.1 1016745
27 january, wed
wed2701:00−4w299695 0.2 1017360
04:00−4wnw4129150 0.1 1017552
07:00−3wnw4118471 0.5 10191006
10:00−2wnw6117783 0.1 10201043
13:000wnw597065 0.1 10211077
16:00−2w4107983 0.0 1021835
19:00−4wsw3119049 0.0 1023423
22:00−5sw269083 0.0 1023189
28 january, thu
thu2801:00−5sw3128287 0.0 1022385
04:00−4sw3108199 0.0 1020334
07:00−3sw31188100 0.0 1017341
10:000ssw31187100 0.3 1013453
13:00+2sw41292100 0.9 1010638
16:00+3wsw61592100 3.3 1008724
19:00+5w51491100 5.6 1008926
22:00+5w61689100 0.5 10081206